• In Schweiz
  • Länderverzeichnis
  • Für 7 Tage
  • Wassertemperatur
  • Satellitenkarten
  • Wetterkarte
  • Widgets
  • user-avatar
    Anmelden

    Stündliche Wetter Balcho

    Heute, 21 September, Freitag

    Zeit Temperatur Niederschläge Wind Luftdruck Luftfeuchtigkeit
    00:00 +37°C° 0 mm 3 m/S 733 mmHg 47%
    01:00 +36°C° 0.1 mm 2 m/S 733 mmHg 48%
    02:00 +36°C° 0.1 mm 2 m/S 732 mmHg 49%
    03:00 +36°C° 0.1 mm 2 m/S 732 mmHg 50%
    04:00 +36°C° 0 mm 2 m/S 732 mmHg 51%
    05:00 +35°C° 0 mm 2 m/S 733 mmHg 51%
    06:00 +34°C° 0 mm 1 m/S 733 mmHg 52%
    07:00 +35°C° 0 mm 1 m/S 734 mmHg 50%
    08:00 +35°C° 0 mm 1 m/S 734 mmHg 47%
    09:00 +36°C° 0 mm 1 m/S 734 mmHg 45%
    10:00 +37°C° 0 mm 1 m/S 734 mmHg 41%
    11:00 +39°C° 0 mm 1 m/S 734 mmHg 38%
    12:00 +40°C° 0 mm 1 m/S 734 mmHg 34%
    13:00 +40°C° 0 mm 1 m/S 733 mmHg 32%
    14:00 +41°C° 0 mm 1 m/S 733 mmHg 29%
    15:00 +41°C° 0 mm 1 m/S 732 mmHg 27%
    16:00 +41°C° 0.1 mm 1 m/S 732 mmHg 27%
    17:00 +41°C° 0.1 mm 1 m/S 732 mmHg 27%
    18:00 +40°C° 0.1 mm 2 m/S 732 mmHg 27%
    19:00 +40°C° 0 mm 2 m/S 732 mmHg 29%
    20:00 +40°C° 0 mm 2 m/S 733 mmHg 30%
    21:00 +39°C° 0 mm 2 m/S 733 mmHg 31%
    22:00 +39°C° 0 mm 2 m/S 733 mmHg 33%
    23:00 +38°C° 0 mm 2 m/S 733 mmHg 35%

    Morgen, 22 September, Samstag

    Zeit Temperatur Niederschläge Wind Luftdruck Luftfeuchtigkeit
    00:00 +37°C° 0 mm 1 m/S 734 mmHg 36%
    01:00 +36°C° 0.1 mm 1 m/S 733 mmHg 38%
    02:00 +36°C° 0.1 mm 1 m/S 733 mmHg 39%
    03:00 +35°C° 0.1 mm 1 m/S 733 mmHg 40%
    04:00 +35°C° 0.2 mm 1 m/S 733 mmHg 42%
    05:00 +34°C° 0.2 mm 1 m/S 733 mmHg 43%
    06:00 +34°C° 0.2 mm 1 m/S 734 mmHg 44%
    07:00 +35°C° 0 mm 1 m/S 734 mmHg 42%
    08:00 +35°C° 0 mm 1 m/S 735 mmHg 39%
    09:00 +36°C° 0 mm 1 m/S 735 mmHg 37%
    10:00 +37°C° 0 mm 1 m/S 735 mmHg 33%
    11:00 +39°C° 0 mm 1 m/S 735 mmHg 30%
    12:00 +40°C° 0 mm 1 m/S 735 mmHg 26%
    13:00 +41°C° 0 mm 1 m/S 734 mmHg 25%
    14:00 +41°C° 0 mm 1 m/S 733 mmHg 23%
    15:00 +42°C° 0 mm 1 m/S 732 mmHg 22%
    16:00 +41°C° 0 mm 2 m/S 732 mmHg 23%
    17:00 +41°C° 0 mm 2 m/S 732 mmHg 24%
    18:00 +41°C° 0 mm 2 m/S 732 mmHg 25%
    19:00 +40°C° 0.1 mm 3 m/S 733 mmHg 29%
    20:00 +39°C° 0.1 mm 3 m/S 733 mmHg 34%
    21:00 +38°C° 0.1 mm 3 m/S 734 mmHg 38%
    22:00 +38°C° 0.1 mm 3 m/S 734 mmHg 40%
    23:00 +37°C° 0.1 mm 3 m/S 734 mmHg 43%

    übermorgen, 23 September, Sonntag

    Zeit Temperatur Niederschläge Wind Luftdruck Luftfeuchtigkeit
    00:00 +37°C° 0.1 mm 3 m/S 734 mmHg 45%
    01:00 +36°C° 0 mm 3 m/S 734 mmHg 47%
    02:00 +36°C° 0 mm 3 m/S 734 mmHg 49%
    03:00 +35°C° 0 mm 3 m/S 734 mmHg 51%
    04:00 +35°C° 0 mm 3 m/S 734 mmHg 52%
    05:00 +35°C° 0 mm 2 m/S 734 mmHg 53%
    06:00 +34°C° 0 mm 2 m/S 734 mmHg 54%
    07:00 +35°C° 0 mm 2 m/S 735 mmHg 50%
    08:00 +35°C° 0 mm 1 m/S 735 mmHg 45%
    09:00 +34°C° 0 mm 0 m/S 736 mmHg 41%
    10:00 +35°C° 0 mm 0 m/S 736 mmHg 37%
    11:00 +39°C° 0 mm 1 m/S 735 mmHg 33%
    12:00 +40°C° 0 mm 1 m/S 735 mmHg 28%
    13:00 +41°C° 0 mm 1 m/S 734 mmHg 26%
    14:00 +41°C° 0 mm 1 m/S 734 mmHg 24%
    15:00 +42°C° 0 mm 1 m/S 733 mmHg 21%
    16:00 +42°C° 0 mm 2 m/S 733 mmHg 21%
    17:00 +42°C° 0 mm 2 m/S 733 mmHg 21%
    18:00 +41°C° 0 mm 2 m/S 733 mmHg 21%
    19:00 +42°C° 0 mm 3 m/S 733 mmHg 24%
    20:00 +40°C° 0 mm 3 m/S 734 mmHg 27%
    21:00 +39°C° 0 mm 3 m/S 734 mmHg 29%
    22:00 +38°C° 0 mm 3 m/S 734 mmHg 32%
    23:00 +38°C° 0 mm 3 m/S 734 mmHg 34%

    24 September, Montag

    Zeit Temperatur Niederschläge Wind Luftdruck Luftfeuchtigkeit
    00:00 +37°C° 0 mm 3 m/S 734 mmHg 36%
    01:00 +36°C° 0 mm 2 m/S 734 mmHg 37%
    02:00 +36°C° 0 mm 2 m/S 733 mmHg 38%
    03:00 +34°C° 0 mm 1 m/S 733 mmHg 39%
    04:00 +34°C° 0 mm 1 m/S 733 mmHg 40%
    05:00 +34°C° 0 mm 1 m/S 733 mmHg 40%
    06:00 +34°C° 0 mm 1 m/S 734 mmHg 41%
    07:00 +35°C° 0 mm 1 m/S 734 mmHg 36%
    08:00 +36°C° 0 mm 1 m/S 735 mmHg 32%
    09:00 +35°C° 0 mm 0 m/S 735 mmHg 27%
    10:00 +39°C° 0 mm 1 m/S 735 mmHg 25%
    11:00 +40°C° 0 mm 1 m/S 734 mmHg 23%
    12:00 +41°C° 0 mm 1 m/S 734 mmHg 21%
    13:00 +41°C° 0 mm 1 m/S 733 mmHg 21%
    14:00 +42°C° 0 mm 1 m/S 732 mmHg 20%
    15:00 +42°C° 0 mm 1 m/S 731 mmHg 19%
    16:00 +42°C° 0 mm 2 m/S 731 mmHg 20%
    17:00 +42°C° 0 mm 2 m/S 731 mmHg 20%
    18:00 +42°C° 0 mm 2 m/S 731 mmHg 21%
    19:00 +41°C° 0 mm 2 m/S 732 mmHg 23%
    20:00 +40°C° 0 mm 3 m/S 732 mmHg 25%
    21:00 +40°C° 0 mm 3 m/S 733 mmHg 27%
    22:00 +39°C° 0 mm 3 m/S 733 mmHg 29%
    23:00 +39°C° 0 mm 3 m/S 733 mmHg 30%

    25 September, Dienstag

    Zeit Temperatur Niederschläge Wind Luftdruck Luftfeuchtigkeit
    00:00 +38°C° 0 mm 2 m/S 732 mmHg 32%
    01:00 +38°C° 0 mm 2 m/S 732 mmHg 33%
    02:00 +37°C° 0 mm 2 m/S 732 mmHg 33%
    03:00 +37°C° 0 mm 2 m/S 732 mmHg 34%
    04:00 +36°C° 0 mm 2 m/S 732 mmHg 36%
    05:00 +36°C° 0 mm 3 m/S 733 mmHg 38%
    06:00 +35°C° 0 mm 3 m/S 733 mmHg 40%
    07:00 +36°C° 0 mm 3 m/S 734 mmHg 39%
    08:00 +36°C° 0 mm 3 m/S 734 mmHg 38%
    09:00 +36°C° 0 mm 2 m/S 735 mmHg 37%
    10:00 +37°C° 0 mm 3 m/S 734 mmHg 34%
    11:00 +38°C° 0 mm 3 m/S 734 mmHg 31%
    12:00 +38°C° 0 mm 3 m/S 734 mmHg 28%
    13:00 +39°C° 0 mm 3 m/S 733 mmHg 26%
    14:00 +40°C° 0 mm 3 m/S 732 mmHg 24%
    15:00 +42°C° 0 mm 3 m/S 731 mmHg 22%
    16:00 +42°C° 0 mm 3 m/S 731 mmHg 22%
    17:00 +42°C° 0 mm 3 m/S 732 mmHg 21%
    18:00 +42°C° 0 mm 3 m/S 732 mmHg 21%
    19:00 +40°C° 0 mm 2 m/S 732 mmHg 22%
    20:00 +40°C° 0 mm 2 m/S 732 mmHg 24%
    21:00 +39°C° 0 mm 1 m/S 733 mmHg 25%
    22:00 +39°C° 0 mm 1 m/S 733 mmHg 28%
    23:00 +38°C° 0 mm 2 m/S 733 mmHg 32%

    26 September, Mittwoch

    Zeit Temperatur Niederschläge Wind Luftdruck Luftfeuchtigkeit
    00:00 +37°C° 0 mm 2 m/S 732 mmHg 35%
    01:00 +37°C° 0 mm 2 m/S 732 mmHg 39%
    02:00 +36°C° 0 mm 2 m/S 732 mmHg 42%
    03:00 +36°C° 0 mm 2 m/S 732 mmHg 46%
    04:00 +35°C° 0 mm 2 m/S 732 mmHg 49%
    05:00 +35°C° 0 mm 2 m/S 733 mmHg 52%
    06:00 +34°C° 0 mm 2 m/S 733 mmHg 56%
    07:00 +35°C° 0 mm 2 m/S 734 mmHg 53%
    08:00 +35°C° 0 mm 2 m/S 734 mmHg 50%
    09:00 +36°C° 0 mm 2 m/S 735 mmHg 47%
    10:00 +37°C° 0 mm 2 m/S 734 mmHg 41%
    11:00 +39°C° 0 mm 2 m/S 734 mmHg 35%
    12:00 +40°C° 0 mm 1 m/S 733 mmHg 30%
    13:00 +40°C° 0 mm 1 m/S 733 mmHg 27%
    14:00 +41°C° 0 mm 1 m/S 732 mmHg 25%
    15:00 +42°C° 0 mm 1 m/S 731 mmHg 23%
    16:00 +42°C° 0 mm 1 m/S 731 mmHg 23%
    17:00 +42°C° 0 mm 1 m/S 731 mmHg 23%
    18:00 +42°C° 0 mm 1 m/S 731 mmHg 23%
    19:00 +41°C° 0 mm 2 m/S 732 mmHg 26%
    20:00 +40°C° 0 mm 2 m/S 732 mmHg 29%
    21:00 +40°C° 0 mm 3 m/S 733 mmHg 32%
    22:00 +39°C° 0 mm 3 m/S 733 mmHg 36%
    23:00 +38°C° 0 mm 3 m/S 733 mmHg 40%
    Mehr zeigen